DH4SBM Weather Reports


time (UTC)temp
F
wind
direction
speed
knots
gust
knots
rain 1hr
in
rain 24hr
in
rain mn
in
humidity
%
barometer
mb
20260506204541 51 202 2.6 7.0 0.06 0.13 0.13 93 1010.5
20260506203541 51 202 3.5 7.0 0.06 0.13 0.13 93 1010.5
20260506202541 51 225 3.5 8.7 0.06 0.13 0.13 93 1010.2
20260506201541 52 202 2.6 5.2 0.06 0.12 0.12 93 1010.1
20260506200541 52 202 3.5 7.0 0.07 0.11 0.11 92 1010.2
20260506195541 52 180 3.5 7.8 0.07 0.10 0.10 92 1010.1
20260506194541 52 180 3.5 7.0 0.06 0.08 0.08 92 1009.9
20260506193541 52 202 3.5 6.1 0.05 0.07 0.07 92 1009.8
20260506192541 53 202 2.6 7.8 0.05 0.06 0.06 92 1009.6
20260506191541 53 202 3.5 9.6 0.04 0.06 0.06 91 1009.4
20260506190541 53 180 3.5 7.0 0.03 0.04 0.04 91 1009.4
20260506185541 53 202 2.6 7.8 0.02 0.03 0.03 91 1009.2
20260506184541 53 202 3.5 8.7 0.02 0.02 0.02 91 1009.0
20260506183544 53 202 4.3 8.7 0.02 0.02 0.02 90 1009.0
20260506182544 54 180 3.5 8.7 0.01 0.02 0.02 90 1008.9
20260506181544 54 202 2.6 7.0 0.01 0.02 0.02 90 1008.7
20260506180544 54 202 2.6 7.8 0.00 0.01 0.01 90 1008.7
20260506175544 54 202 1.7 4.3 0.01 0.03 0.01 90 1008.7
20260506174544 54 225 1.7 4.3 0.01 0.03 0.01 89 1008.5
20260506173544 54 225 2.6 6.1 0.01 0.03 0.01 89 1008.5
20260506172544 54 225 2.6 7.0 0.01 0.03 0.01 89 1008.4
20260506171544 54 225 2.6 5.2 0.01 0.03 0.01 89 1008.2
20260506170546 55 225 1.7 4.3 0.01 0.03 0.01 89 1008.1
20260506165546 55 225 1.7 4.3 0.00 0.03 0.00 88 1008.2
20260506164544 55 248 3.5 6.1 0.00 0.03 0.00 87 1008.2
20260506163544 55 248 4.3 9.6 0.00 0.03 0.00 87 1008.3
20260506162544 55 248 4.3 9.6 0.00 0.03 0.00 86 1008.3
20260506161546 55 248 4.3 9.6 0.00 0.03 0.00 87 1008.2
20260506160546 55 248 4.3 7.8 0.00 0.03 0.00 87 1008.2
20260506155546 55 248 4.3 8.7 0.00 0.03 0.00 87 1008.1
20260506154546 55 270 2.6 7.0 0.00 0.03 0.00 87 1008.0
20260506153546 55 270 2.6 7.0 0.00 0.03 0.00 87 1008.0
20260506152546 55 270 3.5 7.8 0.00 0.03 0.00 87 1008.0
20260506151546 55 292 3.5 10.4 0.00 0.03 0.00 87 1007.8
20260506150546 55 292 6.1 12.2 0.00 0.03 0.00 87 1007.7
20260506145546 55 292 7.0 12.2 0.00 0.05 0.00 87 1007.6
20260506144546 55 292 7.0 13.0 0.00 0.05 0.00 86 1007.5
20260506143546 56 270 9.6 18.2 0.00 0.05 0.00 85 1007.6
20260506142544 56 270 10.4 16.5 0.00 0.05 0.00 82 1007.6
20260506141544 58 270 9.6 19.1 0.00 0.05 0.00 78 1007.5
20260506140544 62 270 4.3 7.8 0.00 0.05 0.00 76 1007.1
20260506135544 62 270 3.5 7.0 0.00 0.09 0.00 71 1007.0
20260506134544 62 292 2.6 6.1 0.00 0.09 0.00 71 1006.9
20260506133544 63 292 3.5 6.1 0.00 0.09 0.00 69 1006.8
20260506132544 63 292 2.6 5.2 0.00 0.09 0.00 70 1006.8
20260506131544 64 315 1.7 4.3 0.00 0.09 0.00 67 1006.7
20260506130544 64 315 0.0 0.9 0.00 0.09 0.00 65 1006.6
20260506125544 64 315 1.7 3.5 0.00 0.17 0.00 65 1006.5
20260506124544 65 180 0.9 3.5 0.00 0.17 0.00 64 1006.5
20260506123735 65 135 0.9 3.5 0.00 0.17 0.00 62 1006.4
20260506122735 65 135 1.7 3.5 0.00 0.17 0.00 64 1006.6
20260506121735 65 112 2.6 6.1 0.00 0.17 0.00 65 1006.5
20260506120735 65 112 2.6 7.0 0.00 0.17 0.00 66 1006.7
20260506115735 65 112 3.5 7.8 0.00 0.17 0.00 67 1006.8
20260506114735 65 112 2.6 7.0 0.00 0.17 0.00 65 1006.8
20260506113735 66 158 1.7 4.3 0.00 0.17 0.00 64 1006.6
20260506112735 66 180 1.7 4.3 0.00 0.17 0.00 65 1006.7
20260506111735 66 202 1.7 5.2 0.00 0.17 0.00 66 1006.8
20260506110735 65 202 0.9 3.5 0.00 0.17 0.00 64 1007.1
20260506105735 64 270 2.6 5.2 0.00 0.17 0.00 66 1007.1
20260506104735 63 22 2.6 5.2 0.00 0.17 0.00 68 1007.1
20260506103735 63 22 1.7 6.1 0.00 0.17 0.00 68 1007.2
20260506102735 63 338 2.6 7.0 0.00 0.17 0.00 68 1007.4
20260506101735 63 360 3.5 6.1 0.00 0.17 0.00 69 1007.4
20260506100733 63 360 2.6 6.1 0.00 0.17 0.00 69 1007.4
20260506095733 64 158 0.9 4.3 0.00 0.17 0.00 66 1007.5
20260506094734 64 202 1.7 4.3 0.00 0.17 0.00 65 1007.6
20260506093734 64 270 1.7 5.2 0.00 0.17 0.00 65 1007.5
20260506092734 63 248 1.7 5.2 0.00 0.17 0.00 65 1007.6
20260506091540 64 158 0.9 3.5 0.00 0.17 0.00 65 1007.5
20260506090540 63 180 0.9 5.2 0.00 0.17 0.00 64 1007.5
20260506085540 63 180 0.9 5.2 0.00 0.17 0.00 69 1007.5
20260506084540 63 225 2.6 4.3 0.00 0.17 0.00 69 1007.6
20260506083540 62 338 1.7 3.5 0.00 0.17 0.00 70 1007.7
20260506082540 62 270 1.7 4.3 0.00 0.17 0.00 71 1007.7
20260506081538 62 248 2.6 6.1 0.00 0.17 0.00 72 1007.7
20260506080538 62 180 2.6 7.0 0.00 0.17 0.00 73 1007.8
20260506072538 58 180 1.7 7.0 0.00 0.17 0.00 82 1007.8
20260506071538 57 158 1.7 3.5 0.00 0.17 0.00 82 1007.8
20260506070538 56 180 0.9 3.5 0.00 0.17 0.00 83 1007.7
20260506061827 54 180 0.9 4.3 0.00 0.17 0.00 91 1008.0
20260506060826 53 158 0.0 1.7 0.00 0.17 0.00 92 1008.0
20260506060542 53 158 0.0 1.7 0.00 0.17 0.00 92 1008.0
20260506050542 50 0 0.0 0.0 0.00 0.17 0.00 91 1008.0
20260506044542 50 0 0.0 0.0 0.00 0.17 0.00 91 1008.0
20260506043542 50 180 0.0 0.9 0.00 0.17 0.00 91 1008.0
20260506042542 51 180 0.9 1.7 0.00 0.17 0.00 91 1008.0
20260506041542 51 180 0.9 3.5 0.00 0.17 0.00 91 1008.1
20260506040542 51 180 0.9 2.6 0.00 0.17 0.00 91 1008.2
20260506035542 51 180 0.9 2.6 0.00 0.17 0.00 90 1008.2
20260506034542 51 180 0.9 2.6 0.00 0.17 0.00 90 1008.2
20260506033542 51 180 0.0 0.9 0.00 0.17 0.00 90 1008.2
20260506032542 51 180 0.9 2.6 0.00 0.17 0.00 90 1008.1
20260506031542 51 180 0.0 1.7 0.00 0.17 0.00 90 1008.1
20260506030542 51 0 0.0 0.0 0.00 0.17 0.00 90 1008.1
20260506025542 51 0 0.0 0.0 0.00 0.17 0.00 90 1008.2
20260506024541 52 180 0.0 1.7 0.00 0.17 0.00 90 1008.2
20260506023542 52 180 1.7 5.2 0.00 0.17 0.00 91 1008.4
20260506022541 52 180 1.7 3.5 0.00 0.17 0.00 91 1008.8
20260506021541 52 158 1.7 3.5 0.00 0.17 0.00 91 1008.7
20260506020541 52 180 1.7 5.2 0.00 0.17 0.00 90 1008.7
20260506015541 52 180 0.9 2.6 0.00 0.17 0.00 91 1008.7
20260506014541 52 180 2.6 4.3 0.00 0.17 0.00 91 1008.7
20260506013541 52 202 2.6 5.2 0.00 0.17 0.00 91 1008.6
20260506012541 52 180 1.7 4.3 0.00 0.17 0.00 91 1008.7
20260506011541 52 180 2.6 5.2 0.00 0.17 0.00 91 1008.6
20260506010541 52 180 2.6 4.3 0.00 0.17 0.00 91 1008.7
20260506005541 52 180 1.7 4.3 0.00 0.17 0.00 91 1008.7
20260506004541 52 180 1.7 4.3 0.00 0.17 0.00 91 1008.7
20260506003543 52 158 1.7 4.3 0.00 0.17 0.00 91 1008.8
20260506002543 52 158 0.9 4.3 0.00 0.17 0.00 91 1008.9
20260506001544 52 180 0.9 4.3 0.00 0.17 0.00 91 1009.0
20260506000543 53 180 0.9 2.6 0.00 0.17 0.00 91 1009.2
20260505235543 53 180 1.7 4.3 0.00 0.17 0.00 91 1009.2
20260505234543 53 180 1.7 5.2 0.00 0.17 0.00 91 1009.3
20260505233543 53 180 1.7 4.3 0.00 0.17 0.00 91 1009.4
20260505232543 53 180 1.7 3.5 0.00 0.17 0.00 92 1009.3
20260505231543 53 202 1.7 5.2 0.00 0.17 0.00 92 1009.3
20260505230543 53 202 2.6 4.3 0.00 0.17 0.00 92 1009.3
20260505225544 53 180 3.5 6.1 0.00 0.17 0.00 92 1009.4
20260505224544 53 180 2.6 5.2 0.00 0.17 0.00 92 1009.4
20260505223544 53 180 2.6 6.1 0.00 0.17 0.00 92 1009.5
20260505222544 54 158 1.7 4.3 0.00 0.17 0.00 92 1009.4
20260505221544 54 180 0.9 2.6 0.00 0.17 0.00 92 1009.2
20260505220544 54 180 0.9 3.5 0.00 0.17 0.00 92 1009.3
20260505215543 54 202 1.7 3.5 0.00 0.17 0.17 92 1009.3
20260505214543 54 202 0.9 2.6 0.00 0.17 0.17 92 1009.5
20260505213543 54 202 0.9 1.7 0.00 0.17 0.17 92 1009.5
20260505212543 54 202 1.7 2.6 0.00 0.17 0.17 92 1009.5
20260505211543 54 202 0.9 3.5 0.00 0.17 0.17 91 1009.5
20260505210543 54 202 1.7 3.5 0.00 0.17 0.17 91 1009.5